DateTimeUTC,F1_A11,F1_S11,BsB_S11,BsG_S11,BsR_S11,BbsB_S11,BbsG_S11,BbsR_S11,BaB_A11,BaG_A11,BaR_A11,Tu_S11,T_S11,Uu_S11,U_S11,P_S11,T1_A11
2021-06-19T03:00:00Z,00000200,21000000,,,,,,,0000.06,0000.10,-000.09,17.2,24.7,,00.0,0671.7,31.0
2021-06-19T03:01:00Z,00000200,21000000,,,,,,,-000.10,-000.10,0000.11,17.2,24.7,,00.0,0671.7,31.0
2021-06-19T03:02:00Z,00000200,21000000,,,,,,,0000.41,0000.18,0000.28,17.2,24.7,,00.0,0671.8,31.0
2021-06-19T03:03:00Z,00000200,61000000,,,,,,,0000.17,0000.62,0000.31,17.3,24.7,,00.0,0671.8,31.0
2021-06-19T03:04:00Z,00000200,41000000,0000.88,0000.31,0000.76,0000.29,0000.06,0000.03,0000.67,0000.12,0000.18,17.7,24.6,,00.0,0672.7,31.0
2021-06-19T03:05:00Z,00000200,01000000,0000.65,0000.25,0000.25,0000.09,0000.38,-000.10,0000.44,0000.33,0000.44,17.8,24.6,,00.0,0672.8,31.1
2021-06-19T03:06:00Z,00000200,01000000,0000.67,0000.29,0000.18,0000.13,0000.14,0000.05,0000.17,0000.21,-000.36,17.9,24.6,,00.0,0672.8,31.1
2021-06-19T03:07:00Z,00000200,01000000,0001.23,0000.19,0000.81,0000.03,0000.31,0000.06,-000.25,0000.14,0000.50,18.0,24.7,,00.0,0672.9,31.1
2021-06-19T03:08:00Z,00000200,01000000,0000.27,0000.17,0000.26,0000.62,0000.38,-000.20,0000.75,0000.27,0000.35,18.0,24.7,00.0,00.0,0672.9,31.1
2021-06-19T03:09:00Z,00000200,01000000,0000.83,0000.25,0000.40,0000.11,0000.35,0000.05,0000.33,0000.40,-000.03,18.0,24.7,,00.0,0672.9,31.1
2021-06-19T03:10:00Z,00000200,01000000,0000.48,0000.23,0000.44,0000.34,0000.24,0000.07,0000.34,0000.14,0000.10,17.9,24.7,,00.0,0672.9,31.0
2021-06-19T03:11:00Z,00000200,01000000,-000.21,0000.07,0000.07,-000.05,0000.31,-000.10,-000.12,0000.07,-000.02,17.9,24.6,,00.0,0672.9,31.0
2021-06-19T03:12:00Z,00000200,01000000,-000.15,0000.11,0000.21,0000.52,0000.08,-000.04,0000.67,0000.09,0000.49,17.8,24.6,,00.0,0672.9,31.0
2021-06-19T03:13:00Z,00000200,01000000,0000.86,0000.01,-000.18,0000.21,0000.08,-000.18,0000.10,0000.23,-000.00,17.8,24.5,00.0,00.0,0672.9,31.0
2021-06-19T03:14:00Z,00000200,01000000,0000.83,0000.26,0000.20,-000.17,-000.06,-000.06,0000.50,0000.32,0000.17,17.8,24.5,00.0,00.0,0672.9,31.0
2021-06-19T03:15:00Z,00000200,01000000,0000.81,0000.01,0000.17,-000.38,0000.24,-000.26,0000.71,0000.60,0000.29,17.8,24.6,00.0,00.0,0672.9,31.0
2021-06-19T03:16:00Z,00000200,01000000,0000.77,0000.36,0000.17,0000.12,0000.07,-000.21,0000.13,0000.44,0000.14,17.9,24.6,00.0,00.0,0672.9,31.0
2021-06-19T03:17:00Z,00000200,01000000,0000.71,0000.00,0000.20,0000.34,0000.40,-000.09,0000.14,0000.36,0000.13,18.0,24.6,00.0,00.0,0672.9,31.1
2021-06-19T03:18:00Z,00000200,01000000,-000.33,0000.46,0000.44,-000.02,0000.37,-000.04,0000.42,0000.22,0000.20,18.0,24.7,00.1,00.0,0672.9,31.1
2021-06-19T03:19:00Z,00000200,01000000,0000.49,0000.06,0000.09,0000.91,0000.13,0000.02,0000.18,0000.17,0000.16,18.1,24.7,00.1,00.0,0672.9,31.1
2021-06-19T03:20:00Z,00000200,01000000,0000.37,0000.12,0000.26,-000.00,0000.31,-000.33,-000.08,0000.33,0000.61,18.2,24.7,00.1,00.0,0672.9,31.1
2021-06-19T03:21:00Z,00000200,01000000,0000.37,0000.17,0000.33,0000.11,0000.13,-000.05,0000.31,-000.24,-000.67,18.2,24.7,00.1,00.1,0672.9,31.1
2021-06-19T03:22:00Z,00000200,01000000,0000.63,0000.16,0000.26,-000.49,0000.15,0000.24,0000.20,0000.04,0000.24,18.2,24.7,00.1,00.0,0672.9,31.1
2021-06-19T03:23:00Z,00000200,01000000,0000.41,0000.38,0000.16,0000.20,0000.19,0000.04,0000.50,0000.44,0000.41,18.1,24.7,00.1,00.0,0672.9,31.1
2021-06-19T03:24:00Z,00000200,01000000,0000.39,0000.40,0000.14,0000.21,0000.16,-000.02,-000.06,0000.29,0000.02,18.0,24.6,00.1,00.1,0672.8,31.0
2021-06-19T03:25:00Z,00000200,01000000,0000.73,0000.30,0000.48,0000.57,0000.13,0000.22,0000.70,0000.40,0000.35,17.9,24.6,00.2,00.1,0672.8,31.0
2021-06-19T03:26:00Z,00000200,01000000,0000.45,0000.27,0000.24,0000.15,0000.28,-000.12,0000.51,0000.62,0000.23,17.9,24.6,00.2,00.2,0672.8,31.0
2021-06-19T03:27:00Z,00000200,01000000,0000.32,0000.29,0000.29,-000.43,0000.32,0000.19,0000.17,0000.16,0000.08,17.8,24.5,00.1,00.1,0672.8,31.0
2021-06-19T03:28:00Z,00000200,01000000,0000.77,0000.31,0000.32,0000.17,0000.09,0000.10,0000.40,0000.24,0000.40,17.8,24.5,00.2,00.2,0672.8,31.0
2021-06-19T03:29:00Z,00000200,01000000,0000.56,0000.35,0000.32,0000.05,0000.20,-000.15,0000.28,0000.70,0000.32,17.8,24.5,00.3,00.2,0672.7,31.0
2021-06-19T03:30:00Z,00000200,01000000,0000.07,0000.43,0000.44,-000.23,0000.01,0000.28,0000.60,0000.04,0000.13,17.9,24.5,00.4,00.2,0672.7,31.0
2021-06-19T03:31:00Z,00000200,01000000,0000.01,0000.28,0000.42,0000.35,0000.27,0000.16,0000.29,0000.43,0000.08,17.9,24.5,00.5,00.3,0672.7,31.0
2021-06-19T03:32:00Z,00000200,01000000,0000.42,0000.01,0000.35,0000.57,0000.01,0000.11,0000.27,-000.10,0000.38,18.0,24.6,00.5,00.3,0672.7,31.0
2021-06-19T03:33:00Z,00000200,01000000,0000.46,0000.41,0000.38,-000.13,0000.25,-000.25,0000.15,0000.32,-000.05,18.0,24.6,00.5,00.3,0672.7,31.0
2021-06-19T03:34:00Z,00000200,01000000,0000.84,0000.46,0000.19,0000.43,-000.01,-000.50,0000.50,0000.34,0000.41,18.1,24.6,00.5,00.3,0672.8,31.1
2021-06-19T03:35:00Z,00000200,01000000,0000.10,0000.06,0000.56,0000.12,0000.18,-000.06,-000.00,0000.04,0000.31,18.1,24.7,00.6,00.4,0672.7,31.1
2021-06-19T03:36:00Z,00000200,01000000,0000.52,0000.25,0000.29,0000.15,0000.11,-000.01,0000.54,0000.42,0000.30,18.1,24.7,00.7,00.5,0672.7,31.1
2021-06-19T03:37:00Z,00000200,01000000,0000.46,0000.15,0000.28,-000.25,0000.13,0000.03,0000.07,0000.44,-000.28,18.1,24.7,00.6,00.4,0672.7,31.0
2021-06-19T03:38:00Z,00000200,01000000,0000.16,0000.53,0000.37,0000.46,0000.42,0000.19,0000.41,0000.12,0000.45,18.0,24.6,00.7,00.4,0672.7,31.0
2021-06-19T03:39:00Z,00000200,01000000,0000.17,0000.24,0000.68,0000.26,0000.16,0000.10,0000.31,0000.24,0000.07,17.9,24.5,00.8,00.6,0672.7,31.0
2021-06-19T03:40:00Z,00000200,01000000,0000.98,-000.01,0000.18,-000.16,-000.11,0000.02,0000.24,0000.16,0000.34,17.9,24.5,00.7,00.5,0672.7,31.0
2021-06-19T03:41:00Z,00000200,01000000,0000.81,0000.41,0000.28,-000.33,0000.12,-000.10,0000.16,0000.54,0000.04,17.8,24.5,00.8,00.5,0672.7,31.0
2021-06-19T03:42:00Z,00000200,01000000,0000.44,0000.51,0000.60,0000.30,0000.16,-000.02,0000.62,0000.12,0000.11,17.8,24.4,00.9,00.6,0672.6,31.0
2021-06-19T03:43:00Z,00000200,01000000,0000.96,0000.61,0000.50,-000.02,0000.16,-000.14,0000.16,0000.08,0000.09,17.7,24.4,00.8,00.5,0672.6,31.0
2021-06-19T03:44:00Z,00000200,01000000,0000.78,0000.23,0000.35,-000.21,0000.36,-000.21,0000.23,0000.43,0000.32,17.7,24.4,00.9,00.6,0672.6,31.0
2021-06-19T03:45:00Z,00000200,01000000,0000.42,0000.29,0000.09,0000.62,0000.03,-000.08,0000.32,0000.30,0000.12,17.8,24.4,00.9,00.6,0672.6,31.0
2021-06-19T03:46:00Z,00000200,01000000,0001.07,0000.12,0000.49,0000.49,-000.08,-000.01,0000.21,0000.50,0000.30,17.8,24.4,01.1,00.7,0672.6,31.0
2021-06-19T03:47:00Z,00000200,01000000,0000.39,0000.09,0000.29,-000.04,0000.12,0000.13,0000.31,-000.24,-000.17,17.9,24.5,01.0,00.7,0672.6,31.0
2021-06-19T03:48:00Z,00000200,01000000,0000.11,0000.14,0000.20,0000.40,0000.20,-000.09,0000.21,0000.18,0000.22,18.0,24.5,01.1,00.7,0672.6,31.0
2021-06-19T03:49:00Z,00000200,01000000,0000.68,0000.25,0000.30,0000.12,-000.02,0000.03,0000.08,0000.23,0000.20,18.0,24.5,01.0,00.7,0672.6,31.1
2021-06-19T03:50:00Z,00000200,01000000,0001.20,0000.26,0000.12,0000.15,-000.01,-000.11,0000.23,0000.30,0000.08,18.1,24.6,01.1,00.7,0672.7,31.1
2021-06-19T03:51:00Z,00000200,01000000,0000.55,0000.55,0000.21,0000.32,0000.09,-000.13,0000.16,0000.05,0000.05,18.1,24.6,01.1,00.7,0672.6,31.1
2021-06-19T03:52:00Z,00000200,01000000,0000.97,0000.15,-000.05,0000.37,0000.17,-000.11,0000.04,-000.05,-000.05,18.1,24.6,01.0,00.7,0672.6,31.1
2021-06-19T03:53:00Z,00000200,01000000,0000.82,0000.26,0000.15,-000.07,0000.21,-000.11,0000.37,0000.32,0000.20,18.1,24.6,01.1,00.7,0672.6,31.0
2021-06-19T03:54:00Z,00000200,01000000,0000.79,-000.06,0000.25,0000.47,0000.08,0000.05,0000.45,0000.52,0000.34,18.0,24.6,01.1,00.7,0672.6,31.0
2021-06-19T03:55:00Z,00000200,01000000,0000.84,0000.42,0000.09,0000.05,0000.28,0000.20,0000.10,0000.06,-000.01,17.9,24.5,01.1,00.8,0672.6,31.0
2021-06-19T03:56:00Z,00000200,01000000,0000.79,0000.29,0000.34,0000.27,0000.16,0000.14,-000.15,0000.17,0000.27,17.9,24.5,01.0,00.7,0672.5,31.0
2021-06-19T03:57:00Z,00000200,41000000,,,,,,,-001.21,-001.10,-000.52,17.9,24.5,00.6,00.4,0672.6,31.0
2021-06-19T03:58:00Z,00000200,61000000,,,,,,,0000.82,0000.35,0000.23,17.5,24.6,00.6,00.4,0671.5,31.0
2021-06-19T03:59:00Z,00000200,21000000,,,,,,,0000.51,0000.80,0000.32,17.5,24.7,00.6,00.4,0671.5,31.0
